Wind_Speed
56 59 62 65 66 67 68 68 68 68 68 67 67 66 65 65 65 65 65 65 65 65 64 63 63 62 60 60 60 60 61 61 61 61 60 60 58 57
50 50 53 55 58 60 61 63 65 66 66 66 66 65 64 64 64 63 63 63 63 63 63 62 61 60 59 59 59 59 60 60 61 61 61 60 60 59
49 48 49 50 53 55 58 60 61 62 62 63 64 63 63 63 62 62 61 61 61 61 61 60 59 58 57 57 57 58 59 60 60 60 60 60 60 59
49 48 49 50 51 53 54 56 58 60 60 61 62 63 63 63 62 62 61 61 60 60 59 59 58 57 57 57 58 58 59 59 60 60 60 60 60 59
50 50 51 52 53 53 54 55 57 58 58 59 60 61 62 61 61 61 61 61 60 60 59 59 58 58 58 59 59 59 59 59 59 60 60 59 58 57
51 50 49 49 51 52 53 53 54 54 54 55 56 57 58 59 59 60 60 61 61 61 61 60 60 60 59 59 59 59 58 58 57 56 56 55 54 54
47 47 48 48 48 49 50 50 50 50 50 51 53 54 56 57 58 58 59 59 61 61 61 61 61 60 60 59 59 59 57 56 54 53 52 50 50 50
42 44 46 46 46 46 47 48 47 48 49 50 52 54 55 56 57 58 58 58 59 59 60 60 61 61 61 60 59 58 55 53 52 50 48 46 46 46
41 42 43 45 46 46 46 46 47 47 48 49 51 53 54 55 56 57 57 58 57 57 57 57 58 58 58 57 56 55 53 51 50 48 47 46 45 44
40 40 41 43 45 46 45 45 46 46 47 48 50 51 52 53 55 55 56 57 56 55 54 54 54 54 54 54 52 51 50 49 49 48 47 46 45 44
40 40 41 42 44 44 45 45 45 46 46 47 48 49 50 51 52 54 54 54 53 52 52 51 51 51 51 50 49 48 48 48 48 48 47 46 45 44
40 41 42 43 43 44 44 44 44 45 46 47 47 48 48 48 49 50 50 50 50 49 48 47 47 47 47 47 47 47 47 47 48 48 47 47 46 45
39 41 42 43 44 43 43 43 44 44 45 46 46 46 45 45 46 46 47 47 47 47 45 45 44 44 45 45 45 46 47 47 48 48 47 47 47 47
39 41 42 43 44 44 43 43 43 43 43 44 44 44 43 43 44 44 44 44 45 45 45 44 44 44 43 43 44 46 47 47 48 48 48 48 48 48
42 42 43 44 45 45 44 43 43 43 43 43 43 44 43 43 43 44 43 44 44 45 46 46 45 45 44 43 44 46 47 48 48 48 49 49 49 49
46 46 45 45 45 45 45 45 44 43 43 43 43 43 43 43 43 43 44 44 44 44 45 45 45 46 46 46 45 46 48 49 50 50 50 51 51 51
50 50 50 50 49 48 48 47 46 45 44 43 43 43 43 43 43 44 44 44 44 45 45 45 44 44 45 46 47 47 48 50 51 52 52 52 53 53
53 53 54 54 54 53 52 51 50 48 47 45 44 43 43 43 43 43 43 43 43 43 43 43 43 44 45 45 47 48 49 50 51 52 53 53 53 54
55 56 56 57 57 57 57 56 55 53 52 50 49 47 46 45 45 44 43 43 42 41 41 41 41 42 43 45 46 49 50 50 51 52 53 53 53 53
59 59 60 60 60 60 61 61 60 59 58 56 55 53 52 50 49 48 47 46 45 44 43 43 42 42 43 43 45 49 51 51 52 53 53 54 53 53
58 61 63 64 64 64 64 64 64 64 63 62 61 60 58 57 55 54 52 51 50 48 47 46 45 44 44 44 45 47 49 51 51 52 52 53 52 52
46 53 59 64 66 68 68 68 67 67 67 67 66 65 64 63 62 60 59 58 56 54 53 52 50 49 47 47 46 47 48 50 50 50 51 51 50 49
35 40 47 54 61 66 69 71 71 71 71 70 70 70 69 68 67 65 64 63 62 60 58 57 56 54 52 51 49 48 48 48 48 48 49 49 48 46
Wind_Direction
246 245 245 244 243 243 242 242 242 242 242 243 244 245 247 247 248 248 247 247 248 249 250 251 252 253 253 252 252 253 253 253 253 252 252 251 251 251
243 242 242 242 242 241 242 242 242 243 243 243 244 245 246 248 249 249 249 249 249 249 250 251 252 252 252 252 252 252 252 252 251 251 250 250 250 250
242 240 239 240 240 241 242 242 244 245 246 246 246 246 246 247 248 249 249 249 249 249 249 250 250 250 251 250 250 250 251 251 251 250 250 250 250 250
238 239 239 240 241 242 243 244 245 246 246 247 248 248 248 248 248 247 248 248 248 248 248 247 247 247 247 247 248 250 251 251 251 250 250 250 250 249
236 239 240 241 242 242 243 244 244 244 245 245 247 248 248 248 247 247 247 247 247 246 245 245 245 245 245 247 248 250 251 252 251 251 251 250 249 249
238 239 239 240 240 240 240 241 241 241 242 243 244 246 247 248 248 248 248 247 246 245 245 244 244 244 244 246 247 249 250 251 251 250 249 248 248 248
239 240 238 239 238 237 236 236 237 239 241 243 245 246 247 248 249 249 248 247 245 244 244 243 243 242 243 245 247 248 248 248 246 246 245 246 246 247
238 239 238 238 237 236 235 236 239 242 243 245 246 247 248 248 247 247 247 246 246 244 244 243 242 242 243 245 246 246 245 243 242 242 242 243 245 247
235 236 235 235 235 235 236 238 241 243 245 246 247 247 247 247 246 246 245 246 246 245 243 242 240 241 242 243 242 242 241 240 239 239 240 242 244 246
235 235 234 234 234 235 238 240 242 244 245 246 246 246 246 245 244 244 245 245 245 243 240 239 239 239 240 240 240 239 237 237 237 238 240 243 245 247
236 235 236 236 236 238 240 241 242 242 243 244 245 245 244 244 243 243 243 242 241 238 237 237 237 238 238 238 238 237 236 236 236 237 240 243 245 247
237 236 237 237 238 239 241 242 243 243 244 244 243 243 243 243 243 242 239 237 234 233 233 234 235 237 238 238 237 236 235 236 236 238 241 244 246 248
239 238 238 239 239 240 241 243 244 244 244 242 241 240 240 240 240 238 234 232 231 231 231 233 234 235 237 238 238 237 237 237 239 241 243 245 247 249
241 240 240 240 240 241 241 242 243 243 243 241 239 238 238 237 237 235 233 232 231 232 231 232 234 235 236 239 241 241 240 241 242 244 245 247 249 251
242 241 240 240 240 240 240 240 241 242 241 239 237 236 236 235 234 233 233 233 233 234 234 235 237 238 238 240 243 245 245 245 245 247 248 250 251 252
242 241 240 239 239 239 238 239 239 239 239 237 235 234 233 232 232 231 231 232 233 234 236 238 239 240 241 242 244 246 248 250 251 250 251 253 254 255
243 242 241 240 239 238 238 238 238 237 237 236 234 233 232 232 232 232 232 233 234 235 237 238 240 241 243 244 245 247 249 251 252 254 254 255 257 257
245 244 242 241 240 238 238 238 238 237 236 236 235 233 232 231 231 231 231 232 233 234 236 237 239 242 244 245 247 249 251 252 254 255 255 256 258 260
246 245 244 243 241 240 239 238 238 238 237 236 236 235 234 233 232 231 231 232 233 235 236 238 240 242 245 247 250 251 253 254 255 256 256 257 258 260
248 246 245 244 243 242 241 240 239 238 238 237 237 236 236 235 234 234 233 234 235 237 239 240 242 245 248 250 253 255 255 255 256 257 258 258 259 259
250 248 247 245 244 243 242 241 240 240 239 239 238 238 237 237 237 237 236 237 237 239 241 243 245 247 250 253 255 257 259 259 258 258 258 258 258 258
255 251 249 247 245 244 243 242 242 241 241 240 239 239 239 238 238 239 239 239 240 241 243 246 248 250 252 254 257 258 260 261 261 260 259 258 257 255
266 259 254 250 247 246 244 243 243 242 242 241 241 241 240 240 240 240 241 241 242 243 245 247 249 251 253 255 257 258 259 261 262 262 260 259 257 255
Height
5535 5540 5546 5552 5558 5564 5570 5575 5582 5588 5595 5600 5606 5611 5615 5620 5626 5631 5636 5641 5645 5650 5655 5659 5664 5669 5673 5677 5682 5685 5689 5693 5696 5700 5704 5708 5712 5716
5519 5524 5530 5535 5541 5547 5553 5558 5564 5570 5577 5583 5588 5594 5599 5604 5609 5614 5619 5624 5629 5634 5639 5643 5648 5653 5658 5662 5667 5671 5674 5678 5682 5686 5690 5694 5698 5702
5505 5511 5516 5521 5526 5532 5538 5543 5549 5555 5562 5566 5571 5577 5582 5588 5593 5598 5602 5608 5613 5618 5623 5628 5633 5638 5643 5648 5652 5656 5660 5664 5668 5672 5676 5680 5684 5689
5491 5497 5502 5507 5513 5518 5523 5528 5534 5540 5546 5551 5555 5560 5566 5571 5577 5582 5587 5592 5597 5602 5607 5612 5618 5623 5628 5633 5637 5641 5645 5649 5653 5657 5662 5666 5670 5673
5477 5482 5488 5493 5499 5503 5508 5514 5519 5525 5531 5536 5540 5544 5549 5555 5561 5566 5572 5577 5581 5586 5591 5597 5603 5608 5613 5618 5622 5626 5630 5635 5639 5642 5646 5651 5655 5659
5464 5469 5474 5479 5484 5489 5495 5500 5505 5511 5516 5521 5525 5529 5534 5539 5544 5550 5555 5560 5565 5570 5576 5581 5587 5592 5598 5603 5607 5611 5616 5620 5624 5628 5632 5637 5641 5645
5452 5456 5461 5466 5471 5476 5481 5487 5492 5497 5502 5507 5511 5515 5519 5524 5529 5534 5539 5543 5548 5553 5559 5566 5572 5577 5582 5586 5591 5596 5601 5606 5610 5614 5619 5623 5627 5631
5440 5445 5449 5454 5459 5464 5469 5475 5480 5484 5489 5493 5497 5501 5505 5509 5514 5518 5523 5527 5533 5540 5544 5549 5555 5561 5566 5571 5576 5582 5587 5592 5597 5601 5606 5610 5615 5618
5429 5433 5437 5442 5447 5452 5457 5462 5467 5471 5476 5480 5483 5487 5491 5495 5500 5504 5507 5511 5517 5523 5528 5534 5540 5546 5551 5556 5562 5568 5573 5578 5583 5588 5593 5598 5602 5606
5418 5421 5425 5430 5435 5439 5444 5449 5454 5458 5462 5466 5469 5473 5476 5480 5484 5489 5493 5497 5502 5508 5514 5520 5526 5531 5537 5542 5549 5555 5560 5565 5570 5576 5581 5586 5590 5594
5406 5410 5414 5418 5423 5428 5432 5437 5441 5445 5448 5452 5455 5458 5462 5466 5470 5474 5479 5483 5488 5494 5500 5506 5513 5518 5524 5530 5536 5541 5547 5552 5558 5563 5569 5574 5578 5582
5395 5399 5402 5406 5410 5415 5419 5423 5427 5431 5434 5438 5442 5445 5449 5452 5456 5460 5465 5470 5475 5482 5488 5495 5501 5506 5512 5518 5524 5529 5534 5540 5546 5551 5557 5561 5566 5570
5383 5387 5390 5394 5398 5402 5406 5410 5414 5417 5421 5424 5428 5432 5436 5439 5443 5448 5453 5458 5464 5471 5477 5484 5490 5495 5501 5506 5511 5517 5522 5528 5534 5539 5544 5549 5553 5557
5371 5374 5378 5381 5385 5389 5393 5397 5401 5404 5408 5411 5415 5419 5423 5428 5432 5437 5442 5448 5454 5460 5467 5473 5479 5485 5491 5495 5500 5505 5511 5516 5522 5527 5532 5536 5540 5543
5358 5361 5364 5368 5372 5376 5380 5384 5388 5392 5395 5399 5403 5407 5412 5416 5421 5427 5432 5437 5443 5449 5456 5462 5468 5474 5480 5485 5489 5493 5498 5504 5509 5514 5518 5522 5526 5530
5343 5346 5350 5354 5358 5362 5366 5371 5375 5379 5383 5387 5391 5395 5400 5405 5410 5416 5421 5427 5433 5439 5445 5451 5457 5463 5468 5474 5478 5482 5486 5491 5495 5501 5506 5509 5512 5516
5326 5330 5334 5339 5343 5347 5352 5357 5362 5366 5370 5375 5379 5384 5388 5394 5399 5405 5410 5416 5422 5427 5433 5439 5445 5451 5456 5462 5467 5471 5475 5479 5483 5487 5492 5496 5498 5502
5308 5312 5316 5321 5326 5331 5336 5341 5347 5352 5357 5362 5367 5372 5377 5382 5387 5393 5399 5404 5410 5416 5421 5428 5434 5439 5445 5449 5454 5458 5462 5466 5470 5474 5478 5482 5485 5486
5288 5292 5297 5302 5307 5313 5318 5324 5330 5336 5342 5347 5353 5358 5364 5369 5375 5381 5387 5393 5398 5404 5410 5415 5421 5427 5432 5437 5441 5444 5448 5452 5457 5460 5464 5468 5472 5472
5267 5272 5277 5282 5287 5293 5299 5305 5312 5318 5324 5331 5337 5343 5350 5356 5362 5368 5374 5380 5386 5392 5397 5403 5409 5415 5420 5425 5427 5429 5434 5439 5443 5446 5449 5453 5457 5459
5246 5250 5255 5260 5266 5272 5278 5285 5291 5298 5305 5312 5319 5326 5333 5340 5347 5353 5360 5367 5373 5379 5385 5390 5396 5402 5407 5411 5415 5417 5419 5424 5428 5432 5435 5438 5442 5445
5226 5229 5233 5238 5243 5250 5256 5263 5270 5277 5285 5292 5300 5307 5315 5322 5329 5337 5344 5351 5358 5365 5371 5376 5382 5388 5394 5398 5402 5405 5406 5409 5413 5417 5420 5423 5426 5430
5210 5211 5213 5216 5221 5226 5233 5240 5248 5255 5263 5271 5279 5287 5295 5302 5310 5318 5326 5334 5341 5348 5355 5361 5367 5373 5379 5384 5389 5392 5394 5396 5399 5403 5405 5408 5412 5416